This is the latest recevied weather packets stored in our database for station/object IW2LSY-11. If no packets are shown the sender has not sent any weather packets the latest 1 day(s).
| Time | Temp. | Humidity | Pressure | Rain* | Wind** | Luminosity | Snow |
|---|---|---|---|---|---|---|---|
| 1778044210 | 12.78° C | 95% | 1010.9 hPa | - | - | 308 W/m² | - |
| 1778043610 | 12.22° C | 99% | 1010.7 hPa | - | - | 308 W/m² | - |
| 1778042410 | 12.78° C | 95% | 1010.8 hPa | - | - | 310 W/m² | - |
| 1778041811 | 12.22° C | 10% | - | - | - | 310 W/m² | - |
| 1778039412 | 12.22° C | 10% | - | - | - | 311 W/m² | - |
| 1778038813 | 12.22° C | 10% | - | - | - | 311 W/m² | - |
| 1778038213 | 12.22° C | 10% | - | - | - | 311 W/m² | - |
| 1778037613 | 12.22° C | 10% | - | - | - | 311 W/m² | - |
| 1778037013 | 11.67° C | 10% | - | - | - | 312 W/m² | - |
| 1778035814 | 11.67° C | 10% | - | - | - | 313 W/m² | - |
| 1778035215 | 12.22° C | 10% | - | - | - | 313 W/m² | - |
| 1778031006 | 12.78° C | 97% | 1011.8 hPa | - | - | 316 W/m² | - |
| 1778028608 | 12.78° C | 96% | 1012.5 hPa | - | - | 318 W/m² | - |
| 1778028008 | 12.78° C | 95% | 1012.5 hPa | - | - | 318 W/m² | - |
| 1778027409 | 12.78° C | 94% | 1012.6 hPa | - | - | 318 W/m² | - |
| 1778026809 | 12.78° C | 94% | 1012.6 hPa | - | - | 318 W/m² | - |
| 1778025009 | 12.78° C | 93% | 1012.7 hPa | - | - | 320 W/m² | - |
| 1778022008 | 12.22° C | 97% | 1012.6 hPa | - | - | 321 W/m² | - |
| 1778021409 | 12.78° C | 90% | 1012.7 hPa | - | - | 322 W/m² | - |
| 1778018411 | 12.78° C | 91% | 1013.3 hPa | - | - | 324 W/m² | - |
| 1778017812 | 12.78° C | 88% | 1013.4 hPa | - | - | 324 W/m² | - |
| 1778017212 | 12.78° C | 93% | 1013.6 hPa | - | - | 325 W/m² | - |
| 1778016612 | 12.78° C | 93% | 1013.6 hPa | - | - | 325 W/m² | - |
| 1778014813 | 12.78° C | 90% | 1013.9 hPa | - | - | 326 W/m² | - |
* Rain since midnight (hover to see other rain measurements)
** Current wind speed in m/s (hover to see current wind gust speed)